FW8669 Weather Reports


time (UTC)temp
C
wind
direction
speed
KPH
gust
KPH
rain 1hr
cm
rain 24hr
cm
rain mn
cm
humidity
%
barometer
mb
20260906125713 30 198 16.1 17.7 0.00 0.00 0.00 61 1014.1
20260906125212 30 195 17.7 20.9 0.00 0.00 0.00 59 1014.2
20260906124707 30 164 14.5 16.1 0.00 0.00 0.00 62 1014.2
20260906124203 30 201 14.5 17.7 0.00 0.00 0.00 59 1014.3
20260906123701 30 189 16.1 22.5 0.00 0.00 0.00 63 1014.3
20260906123156 30 145 12.9 20.9 0.00 0.00 0.00 64 1014.3
20260906122655 30 199 19.3 22.5 0.00 0.00 0.00 65 1014.3
20260906122151 30 194 11.3 17.7 0.00 0.00 0.00 66 1014.3
20260906121647 30 204 12.9 16.1 0.00 0.00 0.00 66 1014.5
20260906121144 30 203 16.1 17.7 0.00 0.00 0.00 64 1014.5
20260906120639 30 138 9.7 16.1 0.00 0.00 0.00 65 1014.3
20260906120137 30 154 14.5 16.1 0.00 0.00 0.00 67 1014.2
20260906115637 30 160 6.4 11.3 0.00 0.00 0.00 66 1014.3
20260906115132 30 153 11.3 14.5 0.00 0.00 0.00 67 1014.3
20260906114625 30 166 9.7 12.9 0.00 0.00 0.00 67 1014.4
20260906114121 30 143 14.5 16.1 0.00 0.00 0.00 69 1014.2
20260906113620 30 190 9.7 14.5 0.00 0.00 0.00 67 1014.5
20260906113115 30 170 8.0 12.9 0.00 0.00 0.00 69 1014.5
20260906112614 30 170 6.4 14.5 0.00 0.00 0.00 69 1014.6
20260906112111 29 174 11.3 17.7 0.00 0.00 0.00 71 1014.6
20260906111610 29 206 16.1 22.5 0.00 0.00 0.00 71 1014.6
20260906111106 30 144 14.5 22.5 0.00 0.00 0.00 69 1014.6
20260906110606 30 188 14.5 17.7 0.00 0.00 0.00 71 1014.6
20260906110100 30 148 12.9 17.7 0.00 0.00 0.00 71 1014.6
20260906105554 30 203 17.7 20.9 0.00 0.00 0.00 71 1014.7
20260906105051 29 161 9.7 16.1 0.00 0.00 0.00 73 1014.5
20260906104549 29 150 12.9 17.7 0.00 0.00 0.00 73 1014.5
20260906104044 30 198 12.9 17.7 0.00 0.00 0.00 73 1014.6
20260906103542 29 167 17.7 20.9 0.00 0.00 0.00 74 1014.8
20260906103038 30 212 16.1 20.9 0.00 0.00 0.00 73 1014.5
20260906102537 30 173 12.9 17.7 0.00 0.00 0.00 73 1014.6
20260906102033 30 164 16.1 20.9 0.00 0.00 0.00 71 1014.6
20260906101527 28 137 14.5 17.7 0.00 0.00 0.00 74 1014.5
20260906101022 29 145 17.7 20.9 0.00 0.00 0.00 73 1014.5
20260906100518 30 127 9.7 17.7 0.00 0.00 0.00 72 1014.6
20260906100012 30 133 11.3 16.1 0.00 0.00 0.00 69 1014.9
20260906095507 29 207 9.7 17.7 0.00 0.00 0.00 71 1014.7
20260906095003 30 132 9.7 17.7 0.00 0.00 0.00 69 1014.5
20260906094501 30 123 14.5 14.5 0.00 0.00 0.00 68 1014.5
20260906093957 30 196 8.0 12.9 0.00 0.00 0.00 68 1014.8
20260906093453 30 140 8.0 11.3 0.00 0.00 0.00 66 1014.7
20260906092954 30 165 11.3 16.1 0.00 0.00 0.00 69 1014.8
20260906092454 29 173 9.7 16.1 0.00 0.00 0.00 70 1014.6
20260906091949 30 152 14.5 17.7 0.00 0.00 0.00 69 1014.6
20260906091444 30 131 14.5 17.7 0.00 0.00 0.00 70 1014.8
20260906090941 29 190 12.9 16.1 0.00 0.00 0.00 70 1014.7
20260906090436 29 154 11.3 16.1 0.00 0.00 0.00 71 1014.9
20260906085930 29 199 14.5 20.9 0.00 0.00 0.00 71 1014.9
20260906085429 29 173 14.5 16.1 0.00 0.00 0.00 69 1014.8
20260906084928 29 165 11.3 14.5 0.00 0.00 0.00 68 1014.6
20260906084424 30 174 11.3 16.1 0.00 0.00 0.00 67 1014.8
20260906083922 29 188 9.7 14.5 0.00 0.00 0.00 67 1014.8
20260906083418 30 135 8.0 14.5 0.00 0.00 0.00 67 1014.9
20260906082917 29 185 8.0 16.1 0.00 0.00 0.00 67 1014.8
20260906082413 29 135 12.9 14.5 0.00 0.00 0.00 68 1014.7
20260906081909 29 144 8.0 14.5 0.00 0.00 0.00 70 1015.0
20260906081404 29 213 14.5 14.5 0.00 0.00 0.00 71 1014.8
20260906080900 29 142 6.4 14.5 0.00 0.00 0.00 72 1014.9
20260906080356 28 131 9.7 14.5 0.00 0.00 0.00 72 1015.1
20260906075855 29 141 8.0 14.5 0.00 0.00 0.00 74 1015.1
20260906075351 28 160 8.0 12.9 0.00 0.00 0.00 74 1015.1
20260906074846 29 204 11.3 14.5 0.00 0.00 0.00 73 1015.0
20260906074346 29 209 8.0 12.9 0.00 0.00 0.00 74 1015.1
20260906073844 29 191 11.3 14.5 0.00 0.00 0.00 72 1015.2
20260906073339 28 212 11.3 12.9 0.00 0.00 0.00 73 1015.0
20260906072836 29 145 4.8 8.0 0.00 0.00 0.00 73 1014.9
20260906072332 28 169 6.4 11.3 0.00 0.00 0.00 73 1014.8
20260906071828 29 175 9.7 11.3 0.00 0.00 0.00 71 1014.9
20260906071328 28 193 8.0 11.3 0.00 0.00 0.00 72 1014.8
20260906070824 28 166 8.0 12.9 0.00 0.00 0.00 74 1014.9
20260906070319 29 196 9.7 12.9 0.00 0.00 0.00 73 1014.9
20260906065814 30 134 8.0 14.5 0.00 0.00 0.00 71 1014.9
20260906065309 30 201 1.6 8.0 0.00 0.00 0.00 68 1014.7
20260906064805 30 143 1.6 4.8 0.00 0.00 0.00 67 1014.9
20260906064301 30 123 4.8 4.8 0.00 0.00 0.00 67 1014.6
20260906063755 30 102 1.6 4.8 0.00 0.00 0.00 66 1014.9
20260906063251 30 259 1.6 4.8 0.00 0.00 0.00 67 1014.9
20260906062746 30 279 3.2 4.8 0.00 0.00 0.00 67 1015.0
20260906062245 28 143 1.6 8.0 0.00 0.00 0.00 68 1014.9
20260906061741 29 309 3.2 3.2 0.00 0.00 0.00 70 1014.9
20260906061237 28 168 3.2 4.8 0.00 0.00 0.00 71 1014.8
20260906060732 28 186 4.8 8.0 0.00 0.00 0.00 72 1014.8
20260906060230 27 176 3.2 8.0 0.00 0.00 0.00 74 1014.7
20260906055725 27 192 3.2 4.8 0.00 0.00 0.00 76 1014.3
20260906055220 28 204 6.4 8.0 0.00 0.00 0.00 76 1014.2
20260906054715 28 192 8.0 9.7 0.00 0.00 0.00 75 1014.5
20260906054210 28 151 3.2 4.8 0.00 0.00 0.00 72 1014.2
20260906053707 28 150 3.2 4.8 0.00 0.00 0.00 70 1014.4
20260906053202 28 116 3.2 4.8 0.00 0.00 0.00 69 1014.0
20260906052657 28 124 1.6 3.2 0.00 0.00 0.00 71 1014.4
20260906052153 28 148 0.0 0.0 0.00 0.00 0.00 73 1014.2
20260906051650 27 131 0.0 0.0 0.00 0.00 0.00 77 1014.2
20260906051149 26 129 0.0 3.2 0.00 0.00 0.00 81 1014.4
20260906050645 26 154 0.0 0.0 0.00 0.00 0.00 83 1014.2
20260906050140 26 153 0.0 1.6 0.00 0.00 0.00 85 1014.4
20260906045638 25 108 1.6 3.2 0.00 0.00 0.00 86 1014.4
20260906045133 25 278 6.4 8.0 0.00 0.00 0.00 86 1014.4
20260906044630 25 266 3.2 4.8 0.00 0.00 0.00 87 1014.5
20260906044125 25 296 4.8 4.8 0.00 0.00 0.00 87 1014.5
20260906043621 25 187 1.6 8.0 0.00 0.00 0.00 88 1014.6
20260906043116 25 266 6.4 8.0 0.00 0.00 0.00 88 1014.3
20260906042615 25 233 3.2 4.8 0.00 0.00 0.00 88 1014.2
20260906042110 25 174 1.6 1.6 0.00 0.00 0.00 88 1014.5
20260906041606 25 277 3.2 3.2 0.00 0.00 0.00 88 1014.5
20260906041101 25 313 3.2 4.8 0.00 0.00 0.00 88 1014.3
20260906040556 25 288 4.8 4.8 0.00 0.00 0.00 88 1014.3
20260906040051 25 200 1.6 1.6 0.00 0.00 0.00 88 1014.4
20260906035546 24 77 1.6 3.2 0.00 0.00 0.00 88 1014.5
20260906035043 24 260 3.2 3.2 0.00 0.00 0.00 88 1014.3
20260906034542 24 292 4.8 4.8 0.00 0.00 0.00 88 1014.4
20260906034037 24 316 4.8 8.0 0.00 0.00 0.00 88 1014.3
20260906033532 25 312 6.4 9.7 0.00 0.00 0.00 87 1014.3
20260906033028 25 275 6.4 8.0 0.00 0.00 0.00 86 1014.3
20260906032525 25 306 4.8 9.7 0.00 0.00 0.00 86 1014.1
20260906032024 25 297 6.4 8.0 0.00 0.00 0.00 85 1014.3
20260906031520 25 289 4.8 9.7 0.00 0.00 0.00 85 1014.3
20260906031015 25 282 3.2 4.8 0.00 0.00 0.00 85 1014.0
20260906030514 25 329 3.2 3.2 0.00 0.00 0.00 85 1014.1
20260906030009 25 336 3.2 3.2 0.00 0.00 0.00 85 1013.9
20260906025508 25 294 4.8 4.8 0.00 0.00 0.00 85 1014.0
20260906025007 25 302 6.4 8.0 0.00 0.00 0.00 85 1014.1
20260906024502 25 277 6.4 8.0 0.00 0.00 0.00 86 1014.1
20260906023956 25 311 8.0 9.7 0.00 0.00 0.00 86 1013.9
20260906023452 25 301 8.0 11.3 0.00 0.00 0.00 85 1014.0
20260906022947 25 295 4.8 11.3 0.00 0.00 0.00 86 1014.0
20260906022442 25 277 8.0 9.7 0.00 0.00 0.00 86 1014.1
20260906021937 25 287 6.4 11.3 0.00 0.00 0.00 86 1014.2
20260906021432 25 297 8.0 11.3 0.00 0.00 0.00 87 1014.0
20260906020926 25 323 6.4 9.7 0.00 0.00 0.00 88 1013.8
20260906020421 25 284 6.4 11.3 0.00 0.00 0.00 89 1014.1
20260906015915 25 296 8.0 9.7 0.00 0.00 0.00 89 1013.6
20260906015415 25 319 4.8 4.8 0.00 0.00 0.00 89 1013.8
20260906014909 25 344 3.2 3.2 0.00 0.00 0.00 89 1013.8
20260906014409 25 328 4.8 4.8 0.00 0.00 0.00 89 1013.7
20260906013905 25 346 4.8 4.8 0.00 0.00 0.00 89 1013.9
20260906013401 25 0 3.2 4.8 0.00 0.00 0.00 89 1013.7
20260906012856 25 351 3.2 4.8 0.00 0.00 0.00 89 1013.9
20260906012351 25 317 4.8 8.0 0.00 0.00 0.00 89 1014.0
20260906011850 25 295 4.8 4.8 0.00 0.00 0.00 89 1014.0
20260906011345 25 316 6.4 8.0 0.00 0.00 0.00 89 1014.0
20260906010841 25 293 3.2 3.2 0.00 0.00 0.00 89 1013.9
20260906010337 25 326 1.6 1.6 0.00 0.00 0.00 89 1013.8
20260906005832 25 314 3.2 3.2 0.00 0.00 0.00 89 1013.9
20260906005331 25 194 1.6 1.6 0.00 0.00 0.00 88 1013.9
20260906004830 25 218 1.6 1.6 0.00 0.00 0.00 88 1013.8
20260906004330 25 76 1.6 3.2 0.00 0.00 0.00 88 1013.8
20260906003825 25 98 1.6 3.2 0.00 0.00 0.00 88 1013.9
20260906003321 25 120 1.6 3.2 0.00 0.00 0.00 88 1013.7
20260906002816 25 54 3.2 3.2 0.00 0.00 0.00 88 1013.7
20260906002315 25 123 3.2 3.2 0.00 0.00 0.00 88 1013.9
20260906001811 25 322 1.6 3.2 0.00 0.00 0.00 88 1013.7
20260906001306 25 298 3.2 4.8 0.00 0.00 0.00 87 1013.8
20260906000801 25 175 1.6 1.6 0.00 0.00 0.00 87 1013.7
20260906000256 25 156 1.6 1.6 0.00 0.00 0.00 87 1014.0
20260905235751 25 120 1.6 1.6 0.00 0.00 0.00 87 1013.9
20260905235250 25 111 1.6 1.6 0.00 0.00 0.00 86 1014.1
20260905234746 25 137 0.0 1.6 0.00 0.00 0.00 86 1013.8
20260905234241 25 121 1.6 1.6 0.00 0.00 0.00 86 1013.9
20260905233736 25 124 0.0 1.6 0.00 0.00 0.00 86 1013.9
20260905233236 25 122 0.0 1.6 0.00 0.00 0.00 86 1014.0
20260905232730 25 103 1.6 1.6 0.00 0.00 0.00 86 1014.1
20260905232226 25 99 1.6 1.6 0.00 0.00 0.00 86 1014.0
20260905231722 25 123 1.6 1.6 0.00 0.00 0.00 85 1014.1
20260905231217 25 123 0.0 1.6 0.00 0.00 0.00 85 1014.0
20260905230713 25 113 1.6 1.6 0.00 0.00 0.00 85 1013.8
20260905230211 25 95 1.6 1.6 0.00 0.00 0.00 85 1013.8
20260905225710 25 85 1.6 1.6 0.00 0.00 0.00 84 1013.9
20260905225206 25 99 1.6 1.6 0.00 0.00 0.00 84 1014.1
20260905224705 25 117 1.6 1.6 0.00 0.00 0.00 84 1013.9
20260905224200 25 48 1.6 4.8 0.00 0.00 0.00 83 1014.1
20260905223656 26 99 1.6 1.6 0.00 0.00 0.00 82 1014.0
20260905223153 26 133 0.0 1.6 0.00 0.00 0.00 83 1014.2
20260905222648 26 133 1.6 1.6 0.00 0.00 0.00 83 1014.4
20260905222148 25 115 1.6 1.6 0.00 0.00 0.00 83 1014.3
20260905221644 26 104 1.6 1.6 0.00 0.00 0.00 83 1014.3
20260905221141 25 125 1.6 1.6 0.00 0.00 0.00 83 1014.4
20260905220636 25 92 1.6 3.2 0.00 0.00 0.00 83 1014.3
20260905220132 26 93 1.6 1.6 0.00 0.00 0.00 83 1014.4
20260905215631 26 116 1.6 3.2 0.00 0.00 0.00 83 1014.4
20260905215127 26 101 1.6 3.2 0.00 0.00 0.00 83 1014.3
20260905214623 25 137 0.0 1.6 0.00 0.00 0.00 83 1014.1
20260905214123 26 96 1.6 3.2 0.00 0.00 0.00 83 1014.3
20260905213618 26 48 1.6 3.2 0.00 0.00 0.00 83 1014.3
20260905213114 26 97 1.6 1.6 0.00 0.00 0.00 83 1014.1
20260905212609 26 78 3.2 3.2 0.00 0.00 0.00 83 1014.4
20260905212108 26 117 1.6 3.2 0.00 0.00 0.00 83 1014.3
20260905211603 26 106 0.0 0.0 0.00 0.00 0.00 83 1014.3
20260905211059 26 144 0.0 0.0 0.00 0.00 0.00 83 1014.5
20260905210555 26 156 0.0 0.0 0.00 0.00 0.00 83 1014.4
20260905210050 26 160 0.0 1.6 0.00 0.00 0.00 83 1014.6
20260905205549 26 178 1.6 3.2 0.00 0.00 0.00 83 1014.7
20260905205048 26 159 0.0 1.6 0.00 0.00 0.00 82 1014.5
20260905204543 26 151 0.0 1.6 0.00 0.00 0.00 82 1014.6
20260905204038 26 185 1.6 1.6 0.00 0.00 0.00 82 1014.4
20260905203538 26 155 0.0 0.0 0.00 0.00 0.00 82 1014.7
20260905203034 26 160 0.0 1.6 0.00 0.00 0.00 82 1014.5
20260905202529 26 183 1.6 3.2 0.00 0.00 0.00 82 1014.5
20260905202024 26 277 3.2 4.8 0.00 0.00 0.00 82 1014.7
20260905201520 26 306 3.2 4.8 0.00 0.00 0.00 82 1014.9
20260905201019 26 275 4.8 4.8 0.00 0.00 0.00 82 1014.7
20260905200515 26 276 3.2 4.8 0.00 0.00 0.00 82 1014.5
20260905200014 26 295 3.2 4.8 0.00 0.00 0.00 82 1014.5
20260905195508 26 243 1.6 4.8 0.00 0.00 0.00 82 1014.4
20260905195004 26 291 4.8 4.8 0.00 0.00 0.00 81 1014.7
20260905194458 26 193 4.8 8.0 0.00 0.00 0.00 81 1014.7
20260905193958 26 232 4.8 4.8 0.00 0.00 0.00 81 1014.6
20260905193452 26 278 6.4 9.7 0.00 0.00 0.00 81 1014.5
20260905192947 26 286 6.4 8.0 0.00 0.00 0.00 80 1014.4
20260905192442 26 292 8.0 9.7 0.00 0.00 0.00 80 1014.7
20260905191938 26 267 6.4 9.7 0.00 0.00 0.00 80 1014.5
20260905191432 27 227 0.0 11.3 0.00 0.00 0.00 80 1014.6
20260905190931 27 206 3.2 9.7 0.00 0.00 0.00 79 1014.3
20260905190429 27 275 6.4 8.0 0.00 0.00 0.00 79 1014.7
20260905185928 27 273 4.8 8.0 0.00 0.00 0.00 78 1014.4
20260905185423 27 175 3.2 4.8 0.00 0.00 0.00 78 1014.7
20260905184922 27 197 6.4 9.7 0.00 0.00 0.00 79 1014.7
20260905184417 27 236 9.7 11.3 0.00 0.00 0.00 79 1014.7
20260905183915 27 227 8.0 11.3 0.00 0.00 0.00 81 1014.6
20260905183410 27 288 6.4 12.9 0.00 0.00 0.00 84 1014.8
20260905182905 27 205 3.2 4.8 0.00 0.00 0.00 85 1014.8
20260905182405 27 232 3.2 9.7 0.00 0.00 0.00 85 1014.6
20260905181901 27 236 9.7 12.9 0.00 0.00 0.00 85 1014.9
20260905181401 27 221 4.8 9.7 0.00 0.00 0.00 85 1014.4
20260905180859 27 241 11.3 12.9 0.00 0.00 0.00 85 1014.6
20260905180355 27 215 6.4 11.3 0.00 0.00 0.00 85 1014.5
20260905175849 27 215 11.3 17.7 0.00 0.00 0.00 85 1014.7
20260905175344 27 236 12.9 14.5 0.00 0.00 0.00 84 1014.8
20260905174839 27 233 14.5 16.1 0.00 0.00 0.00 84 1014.7
20260905174335 27 226 14.5 16.1 0.00 0.00 0.00 84 1014.7
20260905173830 27 215 8.0 14.5 0.00 0.00 0.00 84 1014.7
20260905173326 27 238 9.7 17.7 0.00 0.00 0.00 84 1014.6
20260905172826 27 198 8.0 14.5 0.00 0.00 0.00 84 1014.5
20260905172324 27 227 11.3 16.1 0.00 0.00 0.00 83 1014.7
20260905171821 27 204 9.7 14.5 0.00 0.00 0.00 83 1014.8
20260905171317 27 202 14.5 14.5 0.00 0.00 0.00 83 1014.6
20260905170813 27 216 9.7 11.3 0.00 0.00 0.00 82 1014.7
20260905170309 27 210 12.9 14.5 0.00 0.00 0.00 82 1014.6
20260905165808 27 194 16.1 17.7 0.00 0.00 0.00 82 1014.5
20260905165306 27 211 16.1 17.7 0.00 0.00 0.00 82 1014.5
20260905164804 27 218 14.5 16.1 0.00 0.00 0.00 82 1014.3
20260905164258 27 198 8.0 14.5 0.00 0.00 0.00 83 1014.2
20260905163754 27 206 11.3 12.9 0.00 0.00 0.00 82 1014.2
20260905163250 27 220 9.7 12.9 0.00 0.00 0.00 81 1014.2
20260905162746 27 206 8.0 14.5 0.00 0.00 0.00 81 1014.1
20260905162245 27 200 8.0 11.3 0.00 0.00 0.00 81 1014.1
20260905161740 27 218 8.0 16.1 0.00 0.00 0.00 81 1014.1
20260905161239 27 206 9.7 20.9 0.00 0.00 0.00 82 1014.1
20260905160738 27 202 8.0 12.9 0.00 0.00 0.00 81 1014.0
20260905160237 27 191 12.9 14.5 0.00 0.00 0.00 80 1014.1
20260905155732 27 190 8.0 14.5 0.00 0.00 0.00 80 1014.1
20260905155231 27 204 12.9 20.9 0.00 0.00 0.00 81 1014.1
20260905154725 27 205 12.9 16.1 0.00 0.00 0.00 81 1014.2
20260905154221 27 209 9.7 14.5 0.00 0.00 0.00 80 1014.1
20260905153717 27 214 11.3 22.5 0.00 0.00 0.00 80 1014.3
20260905153212 27 196 8.0 17.7 0.00 0.00 0.00 79 1014.2
20260905152707 27 197 11.3 22.5 0.00 0.00 0.00 78 1014.2
20260905152202 28 223 11.3 14.5 0.00 0.00 0.00 79 1014.3
20260905151701 28 200 16.1 22.5 0.00 0.00 0.00 78 1014.1
20260905151157 28 245 11.3 17.7 0.00 0.00 0.00 78 1014.0
20260905150652 28 206 14.5 22.5 0.00 0.00 0.00 78 1014.3
20260905150150 28 223 14.5 22.5 0.00 0.00 0.00 77 1014.4
20260905145648 28 186 14.5 17.7 0.00 0.00 0.00 78 1014.2
20260905145143 28 179 11.3 20.9 0.00 0.00 0.00 78 1014.0
20260905144637 28 208 20.9 25.7 0.00 0.00 0.00 77 1014.2
20260905144137 28 195 11.3 22.5 0.00 0.00 0.00 78 1014.4
20260905143631 28 206 20.9 24.1 0.00 0.00 0.00 77 1014.1
20260905143126 28 169 14.5 20.9 0.00 0.00 0.00 77 1013.9
20260905142625 28 221 19.3 20.9 0.00 0.00 0.00 78 1014.1
20260905142124 28 177 19.3 22.5 0.00 0.00 0.00 77 1014.0
20260905141619 28 212 22.5 25.7 0.00 0.00 0.00 76 1014.3
20260905141115 28 192 14.5 22.5 0.00 0.00 0.00 77 1014.0
20260905140610 28 192 19.3 24.1 0.00 0.00 0.00 76 1014.2
20260905140109 28 159 17.7 24.1 0.00 0.00 0.00 76 1014.2
20260905135605 29 178 16.1 17.7 0.00 0.00 0.00 75 1014.1
20260905135100 28 185 20.9 25.7 0.00 0.00 0.00 76 1014.2
20260905134555 29 196 20.9 25.7 0.00 0.00 0.00 74 1014.1
20260905134053 28 171 17.7 24.1 0.00 0.00 0.00 76 1014.2
20260905133549 29 211 14.5 24.1 0.00 0.00 0.00 75 1014.3
20260905133049 29 193 17.7 22.5 0.00 0.00 0.00 76 1014.5
20260905132549 29 192 19.3 24.1 0.00 0.00 0.00 74 1014.4
20260905132043 29 216 17.7 25.7 0.00 0.00 0.00 75 1014.5
20260905131539 28 201 20.9 27.4 0.00 0.00 0.00 75 1014.3
20260905131034 29 233 12.9 20.9 0.00 0.00 0.00 74 1014.4
20260905130533 30 226 16.1 22.5 0.00 0.00 0.00 73 1014.4